Regional Weather Roundup
Issued by NWS Pendleton, OR

Home | Current Version | Previous Version | Text Only | Print | Product List | Glossary On
Versions: 1 2 3 4 5 6 7 8 9 10 11 12 13 14 15 16 17 18 19 20 21 22 23 24 25 26 27 28 29 30 31 32 33 34 35 36 37 38 39 40 41 42 43 44 45 46 47 48 49 50
000
ASUS46 KPDT 240625
RWRPDT
PENDLETON REGIONAL WEATHER ROUNDUP
NATIONAL WEATHER SERVICE PENDLETON OREGON
1100 PM PDT SUN JUL 23 2017

NOTE: FAIR INDICATES FEW OR NO CLOUDS BELOW 12,000 FEET WITH NO
SIGNIFICANT WEATHER AND/OR OBSTRUCTIONS TO VISIBILITY.

# INDICATES UNOFFICIAL STATION AND DATA

WAZ520-240710-
EAST SLOPES OF WASHINGTON CASCADES

CITY            SKY/WX      TMP DP  RH  WIND    PRES   REMARKS
#BULLFROG       N/A         65  53  65  W9      N/A
#CLE ELUM HS    N/A         64  53  67  W7      29.91S
#CLE ELUM LAKE  N/A         60  49  67  CALM    30.01S
#EASTON DOT     N/A         60  52  75  N3      N/A
#ELK HTS DOT    N/A         66  66  100 SW2     N/A
#GLENWOOD       N/A         60  52  75  CALM    29.80R
#NELSON 3SW     N/A         64  41  43  CALM    30.05F
#NILE           N/A         65  50  58  SW1     29.16R
#TEANAWAY 4NE   N/A         62  53  72  W2      N/A
#TROUT LAKE 1NE N/A         69  52  55  CALM    29.80S
#TROUT LAKE 1E  N/A         69  48  47  CALM    29.93S
$$

WAZ521-240710-
SIMCOE HIGHLANDS

CITY            SKY/WX      TMP DP  RH  WIND    PRES   REMARKS
#BICKLETON HS   N/A         73  50  44  N10     29.87S
#CENTERVILLE 1SWN/A         70  55  59  W14     29.74R
#GOLDENDALE 1NE N/A         72  42  34  S1      N/A
#GOLDENDALE 4W  N/A         72  14  11  W5      29.92R
#GOODNOE HILLS  N/A         75  56  52  W8      N/A
#LYLE 6NE       N/A         71  57  61  S6      29.81R
#PITT 4SE       N/A         66  55  68  W3      29.82R
$$

WAZ026-240710-
KITTITAS VALLEY

CITY            SKY/WX      TMP DP  RH  WIND    PRES   REMARKS
ELLENSBURG AP   CLEAR       68  52  57  NW25G36 29.90F
6HR MIN TEMP:   68; 6HR MAX TEMP:   87;

#ELLENSBURG CWU N/A         67  52  59  N15     29.76S
#ELLENSBURG 3NE N/A         66  54  65  N10G25  27.98R
#ELLENSBURG 1E  N/A         68  52  57  NW3     29.83S
#KITTITAS 3S    N/A         65  53  65  CALM    29.80R
#MANASTASH RDG  N/A         63  63  100 N13     N/A
#ROCKY CYN DOT  N/A         69  48  47  NW21G33 N/A
#RYEGRASS DOT   N/A         64  52  65  W22     N/A
$$

WAZ027-240710-
YAKIMA VALLEY

CITY            SKY/WX      TMP DP  RH  WIND    PRES   REMARKS
SUNNYSIDE AP    N/A         71  42  35  SW7     29.80R
YAKIMA AIRPORT  CLEAR       78  47  34  NW16G24 29.85S
6HR MIN TEMP:   78; 6HR MAX TEMP:   100;

YAKIMA-VAGABOND CLEAR       73  39  29  N15     29.86S
6HR MIN TEMP:   72; 6HR MAX TEMP:   95;

#DONALD 2NE     N/A         77  16  10  SE12    28.66S
#GRANDVIEW      N/A         77  39  25  W6      29.77R
#MABTON         N/A         79  43  28  W7      29.80R
#MOXEE 2E       N/A         74  N/A N/A W8      29.79R
#NACHES 2SW     N/A         69  50  51  W15     29.88S
#OUTLOOK DOT    N/A         78  37  23  CALM    29.76S
#PARKER DOT     N/A         77  42  29  S20G29  29.81S
#TERRACE HTS    N/A         76  41  28  NW6     29.73R
#TOPPENISH      N/A         77  44  31  NW7     29.69R
#I82 S UMTANUM RN/A         69  45  42  N6      N/A
#UNION GAP DOT  N/A         75  44  33  N7      29.87R
#W YAKIMA       N/A         71  49  46  NW5     29.78R
#WHITE SWAN 5E  N/A         72  52  49  CALM    29.77R
#WILEY CITY 3W  N/A         68  45  44  CALM    29.83R
#ZILLAH DOT     N/A         78  35  21  NW8     N/A
$$

WAZ028-240710-
LOWER COLUMBIA BASIN...WASHINGTON

CITY            SKY/WX      TMP DP  RH  WIND    PRES   REMARKS
HANFORD         CLEAR       80  43  27  NW24G35 29.79
PASCO           CLEAR       80  45  29  NW16    29.78R
6HR MIN TEMP:   80; 6HR MAX TEMP:   102;

PROSSER AWOS    N/A         77  41  28  W9      29.83R
RICHLAND AWOS   CLEAR       82  41  23  W9      29.78R
#BENTON CITY    N/A         76  46  34  CALM    29.64R
#CONNELL 5N     N/A         72  52  49  NW1     29.73R
#CONNELL 5NW    N/A         67  53  61  N1      29.70R
#ELTOPIA 6NW    N/A         73  52  48  CALM    28.77S
#KAHLOTUS       N/A         79  47  32  N18G26  29.72R
#KENNEWICK 3S   N/A         79  45  30  CALM    29.76R
#PATERSON       N/A         81  50  34  N3      29.74R
#PROSSER DOT    N/A         78  38  24  W7      29.80R
#SAGEMOOR 2W    N/A         76  51  42  N6      29.60R
#TOUCHET 2S     N/A         77  50  39  NW1     29.73R
#WEST PASCO     N/A         81  47  30  W6      29.75R
$$

WAZ029-240710-
FOOTHILLS OF THE BLUES...WASHINGTON

CITY            SKY/WX      TMP DP  RH  WIND    PRES   REMARKS
WALLA WALLA AP  CLEAR       81  52  37  SE7     29.81R
6HR MIN TEMP:   81; 6HR MAX TEMP:   98;

#CLYDE 6NW      N/A         82  43  25  N7      29.71S
#DAYTON SCHOOL  N/A         74  47  38  N1      29.84R
#DELANEY DOT    N/A         73  49  43  CALM    29.79R
#LOWDEN 2SE     N/A         75  53  46  W1      29.75R
#PLEASANT VIEW 1N/A         79  42  27  W9      29.73R
#PRESCOTT       N/A         68  57  68  CALM    29.71R
#WHITMAN COLLEGEN/A         80  56  44  CALM    29.77R
#WAITSBURG 5S   N/A         75  48  38  CALM    29.82R
#WAITSBURG 6SSE N/A         71  49  46  E3      29.77R
#WALLA WALLA 5E N/A         77  47  35  S9      N/A
#WHITMAN MISSIONN/A         78  50  38  W1      29.76R
$$

WAZ030-240710-
BLUE MOUNTAINS...WASHINGTON

CITY            SKY/WX      TMP DP  RH  WIND    PRES   REMARKS
#DIXIE 5SE      N/A         76  49  39  SW5     29.85R
$$

ORZ009-041-WAZ024-240710-
COLUMBIA RIVER GORGE

CITY            SKY/WX      TMP DP  RH  WIND    PRES   REMARKS
HOOD RIVER AP   CLEAR       72  55  55  NW7     29.87S
THE DALLES AP   CLEAR       78  58  50  N13     29.82R
6HR MIN TEMP:   78; 6HR MAX TEMP:   94;

#ARLINGTON AIRPON/A         78  57  48  W12     29.77R
#CELILO DOT     N/A         81  57  44  SW9     N/A
#LYLE           N/A         77  59  54  W15     29.83R
#MARYHILL       N/A         77  52  42  N6      29.69R
#RUFUS DOT      N/A         82  N/A N/A W14     N/A
#SMITHVILLE     N/A         77  58  52  W12G24  29.81R

$$

ORZ510-240710-
NORTH CENTRAL OREGON

CITY            SKY/WX      TMP DP  RH  WIND    PRES   REMARKS
#ANTELOPE       N/A         72  45  38  N1      29.61R
#CHENOWITH 1W   N/A         71  55  57  W31G38  N/A
#COW CYN RST AREN/A         73  39  29  SW10    N/A
#DUFUR          N/A         65  51  60  CALM    29.77R
#DUFUR 9E       N/A         71  53  53  CALM    29.82R
#GRASS VALLEY 1SN/A         70  50  49  W1      29.94R
#KENT DOT       N/A         70  48  46  W10     N/A
#MAUPIN SCHOOL  N/A         77  58  52  SW2     29.90R
#MORO SCHOOL    N/A         74  59  59  W10     29.87R
#SHANIKO 5WSW   N/A         72  42  34  N10     N/A
#SHANIKO 4NW    N/A         70  43  38  VRB10   30.00R
#TYGH VALLEY 2NEN/A         74  54  50  CALM    29.78R
#WAPANITIA AIRPON/A         71  54  55  W6      29.80R
#WASCO 5NE      N/A         72  56  57  SW7     29.76R
$$

ORZ511-240710-
CENTRAL OREGON

CITY            SKY/WX      TMP DP  RH  WIND    PRES   REMARKS
BEND AIRPORT    MOCLDY      72  39  30  W6      30.00S
MADRAS AIRPORT  PTCLDY      68  43  40  NW8     29.95S
PRINEVILLE AP   MOCLDY      72  45  38  N6      29.97F
REDMOND AIRPORT PTCLDY      69  37  31  CALM    29.96S
6HR MIN TEMP:   69; 6HR MAX TEMP:   96;

#ASHWOOD SCHOOL N/A         71  43  36  CALM    29.91S
#BEND 1SW       N/A         68  47  47  CALM    N/A
#BEND-AWBREY    N/A         71  43  36  E1      29.77S
#BEND-KIM LN    N/A         67  54  63  W1      29.71S
#CULVER         N/A         70  46  42  E1      29.71F
#CULVER 8W      N/A         73  39  29  CALM    29.97F
#LAKE BILLY CHINN/A         75  N/A N/A NW3     29.88S
#MADRAS 4S      N/A         68  15  13  CALM    N/A
#POWELL BUTTE   N/A         73  48  41  SW3     29.96S
#PRINEVILLE     N/A         72  49  44  CALM    29.83S
#PRINEVILLE 3N  N/A         71  51  49  N5      29.84F
#WARM SPRINGS   N/A         76  49  39  CALM    29.69S

$$


ORZ509-240710-
EAST SLOPES OF OREGON CASCADES

CITY            SKY/WX      TMP DP  RH  WIND    PRES   REMARKS
SISTERS AWOS    N/A         72  54  53  CALM    29.96S
#BLUE BOX PASS  N/A         58  N/A N/A SW10    N/A
#CAMP SHERMAN   N/A         62  52  70  CALM    29.84S
#LA PINE 4NW    N/A         71  49  46  CALM    29.80S
#LAVA BUTTE DOT N/A         69  40  35  CALM    N/A
#SISTERS ODOT   N/A         68  52  57  CALM    N/A
#SISTERS 3N     N/A         64  50  60  CALM    29.90S
#SUNRIVER       N/A         71  46  41  CALM    29.96R
#TUMALO 3W      N/A         73  44  35  CALM    29.64S
#WANOGA BUTTE D N/A         67  46  47  NE2     N/A

$$

ORZ044-240710-
LOWER COLUMBIA BASIN...OREGON

CITY            SKY/WX      TMP DP  RH  WIND    PRES   REMARKS
HERMISTON       CLEAR       77  59  54  S6      29.78R
6HR MIN TEMP:   77; 6HR MAX TEMP:   102;

#BOARDMAN SCHOOLN/A         82  46  28  SW2     29.77R
#BOARDMAN 8SW   N/A         74  61  64  SW5     29.77R
#ECHO 8SW       N/A         78  56  47  SW1     29.81R
#I-84 EX 198 DOTN/A         81  58  46  E7      N/A
#IONE SCHOOL    N/A         78  55  45  CALM    29.78R
#UMATILLA       N/A         81  46  29  CALM    29.68R
$$

ORZ507-240710-
NORTHERN FOOTHILLS OF THE BLUES

CITY            SKY/WX      TMP DP  RH  WIND    PRES   REMARKS
PENDLETON AIRPT PTCLDY      73  50  44  N3      29.84R
6HR MIN TEMP:   73; 6HR MAX TEMP:   98;

#ADAMS 3WNW     N/A         70  48  46  CALM    29.76R
#ATHENA         N/A         73  49  43  CALM    29.79R
#CAYUSE         N/A         77  49  37  CALM    29.75R
#HELIX SCHOOL   N/A         73  43  34  N2      29.75R
#HELIX 3N       N/A         71  42  35  CALM    29.84R
#HOLDMAN 5SE    N/A         76  41  28  CALM    29.84R
#HOLDMAN 6E     N/A         75  42  31  CALM    29.56R
#M-F GROVE ELEM N/A         81  43  26  CALM    29.80R
#M-FREEWATER 5SEN/A         73  54  51  CALM    29.83R
#PENDLETON DNTN N/A         79  48  34  CALM    29.83R
#PDT AQUATIC CTRN/A         78  47  34  CALM    29.84R
#PDT SUNRIDGE   N/A         78  51  39  CALM    29.84R
#PENDLETON 7NW  N/A         76  54  46  CALM    29.85R
#PILOT ROCK 1S  N/A         74  43  33  SE2     29.88R
#PILOT ROCK     N/A         74  46  37  CALM    29.88F
#TUTUILLA       N/A         69  52  55  CALM    29.90R
#UMAPINE 2E     N/A         75  53  46  CALM    29.76R
#WESTON SCHOOL  N/A         73  41  31  CALM    29.77R

$$

ORZ508-240710-
SOUTHERN FOOTHILLS OF THE BLUES

CITY            SKY/WX      TMP DP  RH  WIND    PRES   REMARKS
LEXINGTON       PTCLDY      77  54  45  W6      29.90S
#AJAX           N/A         74  48  40  S3      30.07R
#CONDON 5W      N/A         68  53  59  CALM    29.96R
#FOSSIL SCHOOL  N/A         69  46  44  CALM    29.90R
#HEPPNER EOC    N/A         75  52  45  CALM    29.71S
#HEPPNER 4NE    N/A         72  53  51  SW6     29.76R
#LEXINGTON 2SE  N/A         73  54  51  CALM    29.85R
#MIKKALO        N/A         75  52  45  W5      30.01R
#OLEX 4N        N/A         76  56  50  SW10    29.83R
#RUGGS 5NE      N/A         72  48  43  W2      30.14S
#RUGGS 2SW      N/A         72  49  44  W5      29.77S

$$

ORZ502-503-240710-
BLUE MOUNTAINS

CITY            SKY/WX      TMP DP  RH  WIND    PRES   REMARKS
MEACHAM         PTCLDY      62  50  65  CALM    30.00S
6HR MIN TEMP:   62; 6HR MAX TEMP:   88;

#BATTLE MTN DOT N/A         67  41  39  CALM    N/A
#GRANITE        N/A         64  46  52  CALM    29.68R
#HARDMAN 10S    N/A         67  42  40  CALM    29.86S
#HEPPNER 15SE   N/A         62  44  52  CALM    29.87S
#LADD CYN SMT   N/A         68  49  51  CALM    N/A
#LADD CREEK ODOTN/A         71  51  49  SW1     N/A
#LONG CREEK HS  N/A         66  44  45  CALM    N/A
#N POWDER DOT   N/A         69  54  59  CALM    N/A
#PIKES PEAK     N/A         74  47  38  N13     27.99S
#TOLLGATE       N/A         63  47  56  CALM    29.91F
#TROY SCHOOL    N/A         74  54  50  CALM    29.59R
#UKIAH          N/A         63  48  58  CALM    29.71R
#WESTON 4E      N/A         73  41  31  CALM    29.71R
$$

ORZ505-240710-
JOHN DAY BASIN

CITY            SKY/WX      TMP DP  RH  WIND    PRES   REMARKS
JOHN DAY        CLOUDY      77  47  35  CALM    29.98S
#JOHN DAY KJDY  N/A         76  N/A N/A CALM    30.52R
#DAYVILLE SCHOOLN/A         84  44  25  CALM    29.87R
#MITCHELL       N/A         72  54  53  CALM    30.12F
#MITCHELL 8NW   N/A         76  41  28  CALM    29.80S
#MONUMENT HS    N/A         81  43  26  CALM    29.84S
#MT. VERNON 5SE N/A         76  47  36  CALM    29.95R
#SPRAY SCHOOL   N/A         78  N/A N/A CALM    N/A
$$

ORZ506-240710-
OCHOCO AND JOHN DAY HIGHLANDS

CITY            SKY/WX      TMP DP  RH  WIND    PRES   REMARKS
#HORSE RIDGE DO N/A         71  37  29  W3      N/A
#IZEE 6NW       N/A         70  44  39  S1      N/A
#PAULINA ODOT   N/A         79  46  31  NW7     N/A
#PINE MTN OBS   N/A         64  42  45  N6      N/A
#PRAIRIE CITY   N/A         69  47  45  CALM    30.11R
#SENECA         N/A         72  N/A N/A CALM    N/A
#SENECA 9NW     N/A         71  46  41  CALM    29.73F
$$

ORZ049-240710-
GRANDE RONDE VALLEY

CITY            SKY/WX      TMP DP  RH  WIND    PRES   REMARKS
LA GRANDE       MOCLDY      70  46  42  N3      29.91F
#COVE           N/A         71  53  53  N2      29.96S
#COVE SCHOOL    N/A         71  50  47  CALM    29.94F
#COVE 6NW       N/A         72  51  48  CALM    29.76S
#ELGIN 3N       N/A         67  46  47  CALM    29.91R
#ELGIN 1E       N/A         70  50  49  CALM    N/A
#IMBLER SCHOOL  N/A         69  51  53  CALM    29.88S
#ISLAND CITY 4N N/A         62  51  67  CALM    29.96S
#LA GRANDE-LEFFEN/A         76  50  40  N6      29.92F
#UNION 1S       N/A         69  54  59  CALM    29.75S
$$

ORZ050-240710-
WALLOWA COUNTY

CITY            SKY/WX      TMP DP  RH  WIND    PRES   REMARKS
JOSEPH AIRPORT  PTCLDY      64  46  52  S5      30.02F
#ENTERPRISE HS  N/A         64  51  63  CALM    29.66S
#IMNAHA SCHOOL  N/A         80  45  29  CALM    29.85R
#IMNAHA 10S     N/A         75  46  36  SW6     29.92R
#JOSEPH         N/A         66  48  52  S1      29.95F
#JOSEPH 3N      N/A         58  49  72  CALM    30.03S
#JOSEPH 3W      N/A         65  50  58  SW5     29.89S
#LOSTINE        N/A         67  50  54  CALM    29.58S
#LOSTINE 3SE    N/A         67  47  49  SW2     30.01F
#MT HOWARD 8000 N/A         59  40  49  W2      30.31S
#PROMISE 1S     N/A         67  48  50  CALM    29.84S
#WALLOWA LAKE   N/A         67  47  49  SW2     30.06S
#WALLOWA SCHOOL N/A         65  54  68  CALM    29.91R



$$



USA.gov is the U.S. government's official web portal to all federal, state and local government web resources and services.